This is the latest recevied weather packets stored in our database for station/object WX7FGZ-5. If no packets are shown the sender has not sent any weather packets the latest 1 day(s).
| Time | Temp. | Humidity | Pressure | Rain* | Wind** | Luminosity | Snow |
|---|---|---|---|---|---|---|---|
| 1778023238 | 4.44° C | 81% | 1016.3 hPa | 0 mm | 1.34 m/s, 208° | 60 W/m² | - |
| 1778023044 | 4.44° C | 81% | 1016.3 hPa | 0 mm | 1.34 m/s, 208° | 60 W/m² | - |
| 1778022743 | 4.44° C | 80% | 1016.2 hPa | 0 mm | 0.45 m/s, 103° | 56 W/m² | - |
| 1778022443 | 4.44° C | 82% | 1016.9 hPa | 0 mm | 0.45 m/s, 103° | 60 W/m² | - |
| 1778022147 | 4.44° C | 80% | 1016.8 hPa | 0 mm | 1.34 m/s, 94° | 79 W/m² | - |
| 1778020944 | 3.89° C | 83% | 1016.3 hPa | 0.25 mm | 4.92 m/s, 80° | 53 W/m² | - |
| 1778020643 | 3.89° C | 83% | 1016.6 hPa | 0.25 mm | 4.47 m/s, 83° | 51 W/m² | - |
| 1778020043 | 3.89° C | 83% | 1016.6 hPa | 0.25 mm | 2.68 m/s, 89° | 67 W/m² | - |
| 1778019631 | 3.89° C | 83% | 1016.6 hPa | 0.25 mm | 1.79 m/s, 97° | 54 W/m² | - |
| 1778019443 | 3.89° C | 83% | 1016.6 hPa | 0.25 mm | 1.79 m/s, 97° | 54 W/m² | - |
| 1778018844 | 3.89° C | 82% | 1016.7 hPa | 0.25 mm | 1.34 m/s, 87° | 65 W/m² | - |
| 1778018544 | 3.89° C | 82% | 1016.5 hPa | 0.25 mm | 2.24 m/s, 75° | 74 W/m² | - |
| 1778017944 | 3.89° C | 77% | 1016.7 hPa | 0.25 mm | 3.58 m/s, 89° | 67 W/m² | - |
| 1778017344 | 5° C | 72% | 1017 hPa | 0 mm | 1.79 m/s, 92° | 42 W/m² | - |
| 1778017110 | 5° C | 70% | 1017.1 hPa | 0 mm | 2.24 m/s, 96° | 44 W/m² | - |
| 1778017043 | 5° C | 70% | 1017.1 hPa | 0 mm | 2.24 m/s, 96° | 44 W/m² | - |
| 1778016743 | 5.56° C | 68% | 1017.2 hPa | 0 mm | 0.89 m/s, 85° | 28 W/m² | - |
| 1778016443 | 5.56° C | 66% | 1017.1 hPa | 0 mm | 1.34 m/s, 76° | 28 W/m² | - |
| 1778016204 | 5.56° C | 69% | 1017 hPa | 0 mm | 1.79 m/s, 100° | 30 W/m² | - |
| 1778016143 | 5.56° C | 69% | 1017 hPa | 0 mm | 1.79 m/s, 100° | 30 W/m² | - |
| 1778015843 | 6.11° C | 68% | 1016.8 hPa | 0 mm | 1.79 m/s, 116° | 44 W/m² | - |
| 1778015243 | 6.11° C | 68% | 1016.8 hPa | 0 mm | 0.45 m/s, 141° | 123 W/m² | - |
| 1778015004 | 6.11° C | 67% | 1016.9 hPa | 0 mm | 0.45 m/s, 171° | 114 W/m² | - |
| 1778014944 | 6.11° C | 67% | 1016.9 hPa | 0 mm | 0.45 m/s, 171° | 114 W/m² | - |
| 1778014343 | 6.11° C | 65% | 1016.8 hPa | 0 mm | 0.89 m/s, 166° | 58 W/m² | - |
* Rain latest hour (hover to see other rain measurements)
** Current wind speed in m/s (hover to see current wind gust speed)